,,Stat6,,Stat2,,Stat8,,Stat9,,Stat10,,Wind1,,Wind1,
time,status,PA1M_AVG,status,PR1M_SUM,status,RH1M_AVG,status,SR1M_AVG,status,TA1M_AVG,status,W1dAve1m,status,W1sAve1m,
2009-06-13, 00:00:00,VALID,918.46,VALID,0,VALID,100,VALID,-0.0509425,VALID,21.3009,VALID,65,VALID,0,
2009-06-13, 00:01:00,VALID,918.448,VALID,0,VALID,100,VALID,-0.0679233,VALID,21.3209,VALID,67,VALID,0,
2009-06-13, 00:02:00,VALID,918.447,VALID,0,VALID,100,VALID,-0.0679233,VALID,21.3174,VALID,132,VALID,0,
2009-06-13, 00:03:00,VALID,918.45,VALID,0,VALID,100,VALID,-0.0509425,VALID,21.3044,VALID,147,VALID,0,
2009-06-13, 00:04:00,VALID,918.441,VALID,0,VALID,100,VALID,-0.0849042,VALID,21.2911,VALID,155,VALID,0,
2009-06-13, 00:05:00,VALID,918.44,VALID,0,VALID,100,VALID,-0.0679233,VALID,21.2984,VALID,172,VALID,0,
2009-06-13, 00:06:00,VALID,918.427,VALID,0,VALID,100,VALID,-0.0679233,VALID,21.2917,VALID,173,VALID,0,
2009-06-13, 00:07:00,VALID,918.415,VALID,0,VALID,100,VALID,-0.0849042,VALID,21.2949,VALID,173,VALID,0,
2009-06-13, 00:08:00,VALID,918.413,VALID,0,VALID,100,VALID,-0.0339617,VALID,21.2947,VALID,173,VALID,0,
2009-06-13, 00:09:00,VALID,918.434,VALID,0,VALID,100,VALID,-0.0509425,VALID,21.2947,VALID,172,VALID,0,
2009-06-13, 00:10:00,VALID,918.455,VALID,0,VALID,100,VALID,-0.0679233,VALID,21.2849,VALID,173,VALID,0,
2009-06-13, 00:11:00,VALID,918.459,VALID,0,VALID,100,VALID,-0.101885,VALID,21.2792,VALID,155,VALID,0,
2009-06-13, 00:12:00,VALID,918.475,VALID,0,VALID,100,VALID,-0.0679233,VALID,21.2489,VALID,163,VALID,0,
2009-06-13, 00:13:00,VALID,918.482,VALID,0,VALID,100,VALID,-0.0849042,VALID,21.2395,VALID,170,VALID,0,
2009-06-13, 00:14:00,VALID,918.496,VALID,0,VALID,100,VALID,-0.0339617,VALID,21.2232,VALID,173,VALID,0,
2009-06-13, 00:15:00,VALID,918.496,VALID,0,VALID,100,VALID,-0.0509425,VALID,21.2235,VALID,175,VALID,0,
2009-06-13, 00:16:00,VALID,918.503,VALID,0,VALID,100,VALID,-0.0509425,VALID,21.2203,VALID,174,VALID,0,
2009-06-13, 00:17:00,VALID,918.502,VALID,0,VALID,100,VALID,-0.0509425,VALID,21.2135,VALID,171,VALID,0,
2009-06-13, 00:18:00,VALID,918.5,VALID,0,VALID,100,VALID,-0.0339617,VALID,21.2105,VALID,168,VALID,0,
2009-06-13, 00:19:00,VALID,918.506,VALID,0,VALID,100,VALID,-0.0849042,VALID,21.204,VALID,168,VALID,0,
2009-06-13, 00:20:00,VALID,918.508,VALID,0,VALID,100,VALID,-0.0509425,VALID,21.1978,VALID,153,VALID,0,
2009-06-13, 00:21:00,VALID,918.505,VALID,0,VALID,100,VALID,-0.0509425,VALID,21.1883,VALID,149,VALID,0,
2009-06-13, 00:22:00,VALID,918.484,VALID,0,VALID,100,VALID,-0.0849042,VALID,21.1783,VALID,144,VALID,0,
2009-06-13, 00:23:00,VALID,918.476,VALID,0,VALID,100,VALID,-0.0849042,VALID,21.1656,VALID,142,VALID,0,
2009-06-13, 00:24:00,VALID,918.471,VALID,0,VALID,100,VALID,-0.101885,VALID,21.1488,VALID,132,VALID,0,
2009-06-13, 00:25:00,VALID,918.469,VALID,0,VALID,100,VALID,-0.0679233,VALID,21.1453,VALID,121,VALID,0,
2009-06-13, 00:26:00,VALID,918.477,VALID,0,VALID,100,VALID,-0.0849042,VALID,21.1616,VALID,121,VALID,0,
2009-06-13, 00:27:00,VALID,918.467,VALID,0,VALID,100,VALID,0.0509425,VALID,21.167,VALID,121,VALID,0,
2009-06-13, 00:28:00,VALID,918.467,VALID,0,VALID,100,VALID,0.0509425,VALID,21.17,VALID,119,VALID,0,
2009-06-13, 00:29:00,VALID,918.449,VALID,0,VALID,100,VALID,0,VALID,21.1637,VALID,119,VALID,0,
2009-06-13, 00:30:00,VALID,918.44,VALID,0,VALID,100,VALID,0.0169808,VALID,21.134,VALID,119,VALID,0,
2009-06-13, 00:31:00,VALID,918.411,VALID,0,VALID,100,VALID,0,VALID,21.1315,VALID,119,VALID,0,
2009-06-13, 00:32:00,VALID,918.389,VALID,0,VALID,100,VALID,0.0169808,VALID,21.1472,VALID,118,VALID,0,
2009-06-13, 00:33:00,VALID,918.359,VALID,0,VALID,100,VALID,0.0169808,VALID,21.1705,VALID,63,VALID,0,
2009-06-13, 00:34:00,VALID,918.345,VALID,0,VALID,100,VALID,0,VALID,21.167,VALID,38,VALID,0,
2009-06-13, 00:35:00,VALID,918.331,VALID,0,VALID,100,VALID,0.0169808,VALID,21.1729,VALID,36,VALID,0,
2009-06-13, 00:36:00,VALID,918.319,VALID,0,VALID,100,VALID,0.0509425,VALID,21.2027,VALID,36,VALID,0,
2009-06-13, 00:37:00,VALID,918.321,VALID,0,VALID,100,VALID,0.0849042,VALID,21.2219,VALID,36,VALID,0,
2009-06-13, 00:38:00,VALID,918.332,VALID,0,VALID,100,VALID,0.0509425,VALID,21.2311,VALID,36,VALID,0,
2009-06-13, 00:39:00,VALID,918.339,VALID,0,VALID,100,VALID,0.0169808,VALID,21.2441,VALID,36,VALID,0,
2009-06-13, 00:40:00,VALID,918.342,VALID,0,VALID,100,VALID,0.0339617,VALID,21.2538,VALID,36,VALID,0,
2009-06-13, 00:41:00,VALID,918.337,VALID,0,VALID,100,VALID,0.0339617,VALID,21.2641,VALID,36,VALID,0,
2009-06-13, 00:42:00,VALID,918.347,VALID,0,VALID,100,VALID,-0.0849042,VALID,21.2855,VALID,36,VALID,0,
2009-06-13, 00:43:00,VALID,918.329,VALID,0,VALID,100,VALID,-0.0509425,VALID,21.3147,VALID,36,VALID,0,
2009-06-13, 00:44:00,VALID,918.336,VALID,0,VALID,100,VALID,-0.0509425,VALID,21.3079,VALID,36,VALID,0,
2009-06-13, 00:45:00,VALID,918.337,VALID,0,VALID,100,VALID,-0.101885,VALID,21.3174,VALID,36,VALID,0,
2009-06-13, 00:46:00,VALID,918.337,VALID,0,VALID,100,VALID,-0.0849042,VALID,21.3139,VALID,36,VALID,0,
2009-06-13, 00:47:00,VALID,918.348,VALID,0,VALID,100,VALID,-0.0849042,VALID,21.3306,VALID,36,VALID,0,
2009-06-13, 00:48:00,VALID,918.331,VALID,0,VALID,100,VALID,-0.0679233,VALID,21.3009,VALID,36,VALID,0,
2009-06-13, 00:49:00,VALID,918.325,VALID,0,VALID,100,VALID,-0.0509425,VALID,21.3112,VALID,36,VALID,0,
2009-06-13, 00:50:00,VALID,918.305,VALID,0,VALID,100,VALID,-0.0339617,VALID,21.3011,VALID,36,VALID,0,
2009-06-13, 00:51:00,VALID,918.299,VALID,0,VALID,100,VALID,-0.118866,VALID,21.2852,VALID,36,VALID,0,
2009-06-13, 00:52:00,VALID,918.288,VALID,0,VALID,100,VALID,-0.0679233,VALID,21.2882,VALID,36,VALID,0,
2009-06-13, 00:53:00,VALID,918.281,VALID,0,VALID,100,VALID,-0.101885,VALID,21.3082,VALID,36,VALID,0,
2009-06-13, 00:54:00,VALID,918.292,VALID,0,VALID,100,VALID,-0.0509425,VALID,21.2976,VALID,36,VALID,0,
2009-06-13, 00:55:00,VALID,918.295,VALID,0,VALID,100,VALID,-0.0849042,VALID,21.3274,VALID,36,VALID,0,
2009-06-13, 00:56:00,VALID,918.305,VALID,0,VALID,100,VALID,-0.0849042,VALID,21.3404,VALID,36,VALID,0,
2009-06-13, 00:57:00,VALID,918.303,VALID,0,VALID,100,VALID,0.0169808,VALID,21.2998,VALID,36,VALID,0,
2009-06-13, 00:58:00,VALID,918.309,VALID,0,VALID,100,VALID,0.0169808,VALID,21.2966,VALID,36,VALID,0,
2009-06-13, 00:59:00,VALID,918.298,VALID,0,VALID,100,VALID,0.0509425,VALID,21.2933,VALID,36,VALID,0,
2009-06-13, 01:00:00,VALID,918.299,VALID,0,VALID,100,VALID,0.0169808,VALID,21.2611,VALID,36,VALID,0,
2009-06-13, 01:01:00,VALID,918.31,VALID,0,VALID,100,VALID,0.0679233,VALID,21.2278,VALID,36,VALID,0,
2009-06-13, 01:02:00,VALID,918.301,VALID,0,VALID,100,VALID,0.0679233,VALID,21.2278,VALID,36,VALID,0,
2009-06-13, 01:03:00,VALID,918.303,VALID,0,VALID,100,VALID,0.0849042,VALID,21.2278,VALID,37,VALID,0,
2009-06-13, 01:04:00,VALID,918.303,VALID,0,VALID,100,VALID,0.0679233,VALID,21.2411,VALID,45,VALID,0,
2009-06-13, 01:05:00,VALID,918.305,VALID,0,VALID,100,VALID,0.0509425,VALID,21.2214,VALID,45,VALID,0,
2009-06-13, 01:06:00,VALID,918.308,VALID,0,VALID,100,VALID,0.0169808,VALID,21.2119,VALID,45,VALID,0,
2009-06-13, 01:07:00,VALID,918.327,VALID,0,VALID,100,VALID,0.0169808,VALID,21.1927,VALID,45,VALID,0,
2009-06-13, 01:08:00,VALID,918.319,VALID,0,VALID,100,VALID,0.0849042,VALID,21.1664,VALID,45,VALID,0,
2009-06-13, 01:09:00,VALID,918.317,VALID,0,VALID,100,VALID,0.0509425,VALID,21.147,VALID,45,VALID,0,
2009-06-13, 01:10:00,VALID,918.313,VALID,0,VALID,100,VALID,0.0509425,VALID,21.1464,VALID,45,VALID,0,
2009-06-13, 01:11:00,VALID,918.291,VALID,0,VALID,100,VALID,0,VALID,21.134,VALID,45,VALID,0,
2009-06-13, 01:12:00,VALID,918.257,VALID,0,VALID,100,VALID,-0.0339617,VALID,21.1258,VALID,45,VALID,0,
2009-06-13, 01:13:00,VALID,918.238,VALID,0,VALID,100,VALID,-0.0339617,VALID,21.1093,VALID,45,VALID,0,
2009-06-13, 01:14:00,VALID,918.215,VALID,0,VALID,100,VALID,-0.0849042,VALID,21.0834,VALID,45,VALID,0,
2009-06-13, 01:15:00,VALID,918.196,VALID,0,VALID,100,VALID,-0.101885,VALID,21.0769,VALID,45,VALID,0,
2009-06-13, 01:16:00,VALID,918.168,VALID,0,VALID,100,VALID,-0.101885,VALID,21.0742,VALID,45,VALID,0,
2009-06-13, 01:17:00,VALID,918.146,VALID,0,VALID,100,VALID,-0.0849042,VALID,21.0609,VALID,45,VALID,0,
2009-06-13, 01:18:00,VALID,918.15,VALID,0,VALID,100,VALID,-0.0679233,VALID,21.0609,VALID,45,VALID,0,
2009-06-13, 01:19:00,VALID,918.145,VALID,0,VALID,100,VALID,-0.0679233,VALID,21.0479,VALID,45,VALID,0,
2009-06-13, 01:20:00,VALID,918.145,VALID,0,VALID,100,VALID,-0.101885,VALID,21.0587,VALID,46,VALID,0,
2009-06-13, 01:21:00,VALID,918.143,VALID,0,VALID,100,VALID,-0.0849042,VALID,21.0417,VALID,61,VALID,0,
2009-06-13, 01:22:00,VALID,918.151,VALID,0,VALID,100,VALID,-0.0679233,VALID,21.0252,VALID,72,VALID,0,
2009-06-13, 01:23:00,VALID,918.137,VALID,0,VALID,100,VALID,-0.101885,VALID,21.0185,VALID,73,VALID,0,
2009-06-13, 01:24:00,VALID,918.138,VALID,0,VALID,100,VALID,-0.0849042,VALID,21.012,VALID,93,VALID,0,
2009-06-13, 01:25:00,VALID,918.136,VALID,0,VALID,100,VALID,-0.0679233,VALID,21.0055,VALID,96,VALID,0,
2009-06-13, 01:26:00,VALID,918.132,VALID,0,VALID,100,VALID,-0.0169808,VALID,21.0055,VALID,120,VALID,0,
2009-06-13, 01:27:00,VALID,918.155,VALID,0,VALID,100,VALID,-0.0679233,VALID,20.9863,VALID,141,VALID,0,
2009-06-13, 01:28:00,VALID,918.15,VALID,0,VALID,100,VALID,-0.0509425,VALID,20.9928,VALID,156,VALID,0,
2009-06-13, 01:29:00,VALID,918.162,VALID,0,VALID,100,VALID,-0.0679233,VALID,20.9892,VALID,144,VALID,0,
2009-06-13, 01:30:00,VALID,918.164,VALID,0,VALID,100,VALID,-0.0509425,VALID,20.9895,VALID,142,VALID,0.0281613,
2009-06-13, 01:31:00,VALID,918.165,VALID,0,VALID,100,VALID,-0.0169808,VALID,20.9695,VALID,139,VALID,0,
2009-06-13, 01:32:00,VALID,918.168,VALID,0,VALID,100,VALID,-0.0169808,VALID,20.9603,VALID,130,VALID,0,
2009-06-13, 01:33:00,VALID,918.177,VALID,0,VALID,100,VALID,-0.0509425,VALID,20.9276,VALID,147,VALID,0,
2009-06-13, 01:34:00,VALID,918.181,VALID,0,VALID,100,VALID,-0.0509425,VALID,20.9308,VALID,168,VALID,0,
2009-06-13, 01:35:00,VALID,918.185,VALID,0,VALID,100,VALID,-0.0339617,VALID,20.9243,VALID,176,VALID,0,
2009-06-13, 01:36:00,VALID,918.196,VALID,0,VALID,100,VALID,-0.0339617,VALID,20.9184,VALID,181,VALID,0,
2009-06-13, 01:37:00,VALID,918.203,VALID,0,VALID,100,VALID,-0.0339617,VALID,20.9111,VALID,182,VALID,0,
2009-06-13, 01:38:00,VALID,918.205,VALID,0,VALID,100,VALID,-0.0339617,VALID,20.8951,VALID,183,VALID,0,
2009-06-13, 01:39:00,VALID,918.19,VALID,0,VALID,100,VALID,-0.0509425,VALID,20.8883,VALID,183,VALID,0,
2009-06-13, 01:40:00,VALID,918.195,VALID,0,VALID,100,VALID,-0.0509425,VALID,20.8948,VALID,183,VALID,0,
2009-06-13, 01:41:00,VALID,918.173,VALID,0,VALID,100,VALID,-0.0339617,VALID,20.9081,VALID,183,VALID,0,
2009-06-13, 01:42:00,VALID,918.161,VALID,0,VALID,100,VALID,-0.0509425,VALID,20.9048,VALID,152,VALID,0,
2009-06-13, 01:43:00,VALID,918.138,VALID,0,VALID,100,VALID,-0.0339617,VALID,20.8984,VALID,133,VALID,0,
2009-06-13, 01:44:00,VALID,918.122,VALID,0,VALID,100,VALID,-0.0339617,VALID,20.8984,VALID,127,VALID,0,
2009-06-13, 01:45:00,VALID,918.109,VALID,0,VALID,100,VALID,-0.0339617,VALID,20.8883,VALID,136,VALID,0,
2009-06-13, 01:46:00,VALID,918.074,VALID,0,VALID,100,VALID,-0.0849042,VALID,20.8919,VALID,119,VALID,0,
2009-06-13, 01:47:00,VALID,918.06,VALID,0,VALID,100,VALID,-0.0169808,VALID,20.8694,VALID,105,VALID,0,
2009-06-13, 01:48:00,VALID,918.038,VALID,0,VALID,100,VALID,0,VALID,20.8562,VALID,107,VALID,0,
2009-06-13, 01:49:00,VALID,918.02,VALID,0,VALID,100,VALID,-0.0169808,VALID,20.8499,VALID,107,VALID,0,
2009-06-13, 01:50:00,VALID,917.987,VALID,0,VALID,100,VALID,-0.0679233,VALID,20.8399,VALID,107,VALID,0,
2009-06-13, 01:51:00,VALID,917.986,VALID,0,VALID,100,VALID,-0.0509425,VALID,20.8272,VALID,107,VALID,0,
2009-06-13, 01:52:00,VALID,917.971,VALID,0,VALID,100,VALID,-0.0509425,VALID,20.8302,VALID,107,VALID,0,
2009-06-13, 01:53:00,VALID,917.977,VALID,0,VALID,100,VALID,-0.0339617,VALID,20.8204,VALID,107,VALID,0,
2009-06-13, 01:54:00,VALID,917.992,VALID,0,VALID,100,VALID,-0.0169808,VALID,20.8267,VALID,107,VALID,0,
2009-06-13, 01:55:00,VALID,918.008,VALID,0,VALID,100,VALID,-0.0339617,VALID,20.8169,VALID,107,VALID,0,
2009-06-13, 01:56:00,VALID,918.011,VALID,0,VALID,100,VALID,-0.0169808,VALID,20.8107,VALID,107,VALID,0,
2009-06-13, 01:57:00,VALID,918.029,VALID,0,VALID,100,VALID,-0.0679233,VALID,20.788,VALID,107,VALID,0,
2009-06-13, 01:58:00,VALID,918.023,VALID,0,VALID,100,VALID,-0.0679233,VALID,20.7815,VALID,107,VALID,0,
2009-06-13, 01:59:00,VALID,918.03,VALID,0,VALID,100,VALID,-0.0339617,VALID,20.7845,VALID,107,VALID,0,
2009-06-13, 02:00:00,VALID,918.039,VALID,0,VALID,100,VALID,-0.0509425,VALID,20.7842,VALID,107,VALID,0,
2009-06-13, 02:01:00,VALID,918.038,VALID,0,VALID,100,VALID,-0.0679233,VALID,20.7942,VALID,107,VALID,0,
2009-06-13, 02:02:00,VALID,918.05,VALID,0,VALID,100,VALID,-0.0679233,VALID,20.804,VALID,107,VALID,0,
2009-06-13, 02:03:00,VALID,918.05,VALID,0,VALID,100,VALID,-0.0339617,VALID,20.8204,VALID,107,VALID,0,
2009-06-13, 02:04:00,VALID,918.065,VALID,0,VALID,100,VALID,-0.0339617,VALID,20.8369,VALID,107,VALID,0,
2009-06-13, 02:05:00,VALID,918.061,VALID,0,VALID,100,VALID,-0.0169808,VALID,20.8464,VALID,75,VALID,0,
2009-06-13, 02:06:00,VALID,918.062,VALID,0,VALID,100,VALID,-0.0169808,VALID,20.8591,VALID,21,VALID,0,
2009-06-13, 02:07:00,VALID,918.047,VALID,0,VALID,100,VALID,-0.0509425,VALID,20.8759,VALID,21,VALID,0,
2009-06-13, 02:08:00,VALID,918.037,VALID,0,VALID,100,VALID,-0.0169808,VALID,20.8854,VALID,21,VALID,0,
2009-06-13, 02:09:00,VALID,918.036,VALID,0,VALID,100,VALID,-0.0509425,VALID,20.8919,VALID,21,VALID,0,
2009-06-13, 02:10:00,VALID,918.026,VALID,0,VALID,100,VALID,-0.0169808,VALID,20.8981,VALID,21,VALID,0,
2009-06-13, 02:11:00,VALID,918.016,VALID,0,VALID,100,VALID,-0.0169808,VALID,20.8978,VALID,21,VALID,0,
2009-06-13, 02:12:00,VALID,918,VALID,0,VALID,100,VALID,-0.0339617,VALID,20.9081,VALID,21,VALID,0,
2009-06-13, 02:13:00,VALID,917.998,VALID,0,VALID,100,VALID,-0.0509425,VALID,20.9146,VALID,21,VALID,0,
2009-06-13, 02:14:00,VALID,917.995,VALID,0,VALID,100,VALID,-0.0509425,VALID,20.9146,VALID,21,VALID,0,
2009-06-13, 02:15:00,VALID,917.97,VALID,0,VALID,100,VALID,-0.0169808,VALID,20.9146,VALID,21,VALID,0,
2009-06-13, 02:16:00,VALID,917.952,VALID,0,VALID,100,VALID,-0.0849042,VALID,20.9211,VALID,21,VALID,0,
2009-06-13, 02:17:00,VALID,917.92,VALID,0,VALID,100,VALID,-0.0849042,VALID,20.9308,VALID,21,VALID,0,
2009-06-13, 02:18:00,VALID,917.902,VALID,0,VALID,100,VALID,-0.0509425,VALID,20.9343,VALID,21,VALID,0,
2009-06-13, 02:19:00,VALID,917.878,VALID,0,VALID,100,VALID,-0.0339617,VALID,20.9435,VALID,21,VALID,0,
2009-06-13, 02:20:00,VALID,917.858,VALID,0,VALID,100,VALID,-0.0849042,VALID,20.9598,VALID,21,VALID,0,
2009-06-13, 02:21:00,VALID,917.846,VALID,0,VALID,100,VALID,-0.0509425,VALID,20.996,VALID,21,VALID,0,
2009-06-13, 02:22:00,VALID,917.844,VALID,0,VALID,100,VALID,0,VALID,20.9925,VALID,21,VALID,0,
2009-06-13, 02:23:00,VALID,917.841,VALID,0,VALID,100,VALID,-0.0339617,VALID,20.9565,VALID,21,VALID,0,
2009-06-13, 02:24:00,VALID,917.83,VALID,0,VALID,100,VALID,0,VALID,20.9241,VALID,21,VALID,0,
2009-06-13, 02:25:00,VALID,917.824,VALID,0,VALID,100,VALID,-0.0509425,VALID,20.9081,VALID,23,VALID,0,
2009-06-13, 02:26:00,VALID,917.8,VALID,0,VALID,100,VALID,-0.0509425,VALID,20.8984,VALID,34,VALID,0,
2009-06-13, 02:27:00,VALID,917.771,VALID,0,VALID,100,VALID,0,VALID,20.8562,VALID,20,VALID,0,
2009-06-13, 02:28:00,VALID,917.731,VALID,0,VALID,100,VALID,-0.0509425,VALID,20.8432,VALID,12,VALID,0,
2009-06-13, 02:29:00,VALID,917.691,VALID,0,VALID,100,VALID,-0.0679233,VALID,20.8269,VALID,16,VALID,0,
2009-06-13, 02:30:00,VALID,917.657,VALID,0,VALID,100,VALID,-0.0169808,VALID,20.7977,VALID,24,VALID,0,
2009-06-13, 02:31:00,VALID,917.617,VALID,0,VALID,100,VALID,-0.0339617,VALID,20.7842,VALID,17,VALID,0,
2009-06-13, 02:32:00,VALID,917.572,VALID,0,VALID,100,VALID,0,VALID,20.7972,VALID,25,VALID,0,
2009-06-13, 02:33:00,VALID,917.547,VALID,0,VALID,100,VALID,-0.0339617,VALID,20.781,VALID,63,VALID,0,
2009-06-13, 02:34:00,VALID,917.526,VALID,0,VALID,100,VALID,-0.0339617,VALID,20.7547,VALID,52,VALID,0,
2009-06-13, 02:35:00,VALID,917.504,VALID,0,VALID,100,VALID,-0.0339617,VALID,20.7258,VALID,59,VALID,0,
2009-06-13, 02:36:00,VALID,917.502,VALID,0,VALID,100,VALID,-0.0849042,VALID,20.7001,VALID,62,VALID,0,
2009-06-13, 02:37:00,VALID,917.499,VALID,0,VALID,100,VALID,-0.101885,VALID,20.6741,VALID,62,VALID,0,
2009-06-13, 02:38:00,VALID,917.487,VALID,0,VALID,100,VALID,-0.0509425,VALID,20.6746,VALID,62,VALID,0,
2009-06-13, 02:39:00,VALID,917.506,VALID,0,VALID,100,VALID,-0.0849042,VALID,20.6874,VALID,62,VALID,0,
2009-06-13, 02:40:00,VALID,917.509,VALID,0,VALID,100,VALID,-0.0509425,VALID,20.7101,VALID,62,VALID,0,
2009-06-13, 02:41:00,VALID,917.518,VALID,0,VALID,100,VALID,-0.0679233,VALID,20.7133,VALID,62,VALID,0,
2009-06-13, 02:42:00,VALID,917.494,VALID,0,VALID,100,VALID,0.0169808,VALID,20.7085,VALID,62,VALID,0,
2009-06-13, 02:43:00,VALID,917.471,VALID,0,VALID,100,VALID,0.0339617,VALID,20.6983,VALID,62,VALID,0,
2009-06-13, 02:44:00,VALID,917.436,VALID,0,VALID,100,VALID,0.0339617,VALID,20.715,VALID,62,VALID,0,
2009-06-13, 02:45:00,VALID,917.411,VALID,0,VALID,100,VALID,0.0339617,VALID,20.7118,VALID,62,VALID,0,
2009-06-13, 02:46:00,VALID,917.385,VALID,0,VALID,100,VALID,0.0509425,VALID,20.6858,VALID,62,VALID,0,
2009-06-13, 02:47:00,VALID,917.367,VALID,0,VALID,100,VALID,0,VALID,20.6858,VALID,62,VALID,0,
2009-06-13, 02:48:00,VALID,917.358,VALID,0,VALID,100,VALID,0.0169808,VALID,20.702,VALID,62,VALID,0,
2009-06-13, 02:49:00,VALID,917.362,VALID,0,VALID,100,VALID,0.0169808,VALID,20.702,VALID,62,VALID,0,
2009-06-13, 02:50:00,VALID,917.375,VALID,0,VALID,100,VALID,0.0339617,VALID,20.6955,VALID,93,VALID,0,
2009-06-13, 02:51:00,VALID,917.392,VALID,0,VALID,100,VALID,0.0679233,VALID,20.6955,VALID,133,VALID,0,
2009-06-13, 02:52:00,VALID,917.395,VALID,0,VALID,100,VALID,0.0169808,VALID,20.692,VALID,149,VALID,0,
2009-06-13, 02:53:00,VALID,917.404,VALID,0,VALID,100,VALID,0.0169808,VALID,20.6955,VALID,160,VALID,0,
2009-06-13, 02:54:00,VALID,917.408,VALID,0,VALID,100,VALID,0.0169808,VALID,20.6918,VALID,161,VALID,0,
2009-06-13, 02:55:00,VALID,917.398,VALID,0,VALID,100,VALID,0.0849042,VALID,20.6985,VALID,140,VALID,0.0671875,
2009-06-13, 02:56:00,VALID,917.382,VALID,0,VALID,100,VALID,0.0169808,VALID,20.7055,VALID,165,VALID,0.17294,
2009-06-13, 02:57:00,VALID,917.369,VALID,0,VALID,100,VALID,-0.0509425,VALID,20.6906,VALID,180,VALID,0.0683594,
2009-06-13, 02:58:00,VALID,917.364,VALID,0,VALID,100,VALID,-0.0509425,VALID,20.6806,VALID,156,VALID,0.251116,
2009-06-13, 02:59:00,VALID,917.355,VALID,0,VALID,100,VALID,-0.0169808,VALID,20.6576,VALID,162,VALID,0.0236378,
2009-06-13, 03:00:00,VALID,917.346,VALID,0,VALID,100,VALID,-0.0339617,VALID,20.6517,VALID,164,VALID,0,
2009-06-13, 03:01:00,VALID,917.343,VALID,0,VALID,100,VALID,-0.0509425,VALID,20.6479,VALID,169,VALID,0,
2009-06-13, 03:02:00,VALID,917.335,VALID,0,VALID,100,VALID,-0.0169808,VALID,20.6482,VALID,179,VALID,0.0331555,
2009-06-13, 03:03:00,VALID,917.333,VALID,0,VALID,100,VALID,-0.0679233,VALID,20.6352,VALID,212,VALID,0,
2009-06-13, 03:04:00,VALID,917.332,VALID,0,VALID,100,VALID,-0.0849042,VALID,20.6222,VALID,204,VALID,0,
2009-06-13, 03:05:00,VALID,917.323,VALID,0,VALID,100,VALID,-0.0849042,VALID,20.6192,VALID,127,VALID,0.0176809,
2009-06-13, 03:06:00,VALID,917.323,VALID,0,VALID,100,VALID,-0.0849042,VALID,20.6127,VALID,67,VALID,0.113758,
2009-06-13, 03:07:00,VALID,917.31,VALID,0,VALID,100,VALID,-0.0849042,VALID,20.606,VALID,59,VALID,0,
2009-06-13, 03:08:00,VALID,917.299,VALID,0,VALID,100,VALID,-0.0509425,VALID,20.609,VALID,56,VALID,0,
2009-06-13, 03:09:00,VALID,917.292,VALID,0,VALID,100,VALID,-0.0169808,VALID,20.5992,VALID,60,VALID,0,
2009-06-13, 03:10:00,VALID,917.295,VALID,0,VALID,100,VALID,-0.0849042,VALID,20.577,VALID,68,VALID,0,
2009-06-13, 03:11:00,VALID,917.275,VALID,0,VALID,100,VALID,-0.0679233,VALID,20.5575,VALID,85,VALID,0,
2009-06-13, 03:12:00,VALID,917.255,VALID,0,VALID,100,VALID,-0.0509425,VALID,20.5246,VALID,108,VALID,0,
2009-06-13, 03:13:00,VALID,917.244,VALID,0,VALID,100,VALID,-0.0679233,VALID,20.4894,VALID,119,VALID,0.00457317,
2009-06-13, 03:14:00,VALID,917.233,VALID,0,VALID,100,VALID,0,VALID,20.4661,VALID,123,VALID,0.00446429,
2009-06-13, 03:15:00,VALID,917.243,VALID,0,VALID,100,VALID,-0.101885,VALID,20.4472,VALID,124,VALID,0,
2009-06-13, 03:16:00,VALID,917.247,VALID,0,VALID,100,VALID,-0.101885,VALID,20.4115,VALID,125,VALID,0,
2009-06-13, 03:17:00,VALID,917.262,VALID,0,VALID,100,VALID,-0.0679233,VALID,20.402,VALID,128,VALID,0.046875,
2009-06-13, 03:18:00,VALID,917.29,VALID,0,VALID,100,VALID,-0.0509425,VALID,20.3661,VALID,137,VALID,0.0666788,
2009-06-13, 03:19:00,VALID,917.315,VALID,0,VALID,100,VALID,-0.0849042,VALID,20.3628,VALID,148,VALID,0.0517361,
2009-06-13, 03:20:00,VALID,917.342,VALID,0,VALID,100,VALID,-0.0509425,VALID,20.3466,VALID,171,VALID,0.118096,
2009-06-13, 03:21:00,VALID,917.363,VALID,0,VALID,100,VALID,-0.0679233,VALID,20.3496,VALID,166,VALID,0.286776,
2009-06-13, 03:22:00,VALID,917.365,VALID,0,VALID,100,VALID,-0.0509425,VALID,20.359,VALID,182,VALID,0.160417,
2009-06-13, 03:23:00,VALID,917.36,VALID,0,VALID,100,VALID,-0.0849042,VALID,20.3685,VALID,163,VALID,0.408454,
2009-06-13, 03:24:00,VALID,917.343,VALID,0,VALID,100,VALID,-0.0169808,VALID,20.3853,VALID,162,VALID,0.0168679,
2009-06-13, 03:25:00,VALID,917.308,VALID,0,VALID,100,VALID,-0.0339617,VALID,20.369,VALID,136,VALID,0.0714026,
2009-06-13, 03:26:00,VALID,917.28,VALID,0,VALID,100,VALID,-0.0169808,VALID,20.3626,VALID,142,VALID,0.0305233,
2009-06-13, 03:27:00,VALID,917.259,VALID,0,VALID,100,VALID,0,VALID,20.3326,VALID,146,VALID,0.181593,
2009-06-13, 03:28:00,VALID,917.239,VALID,0,VALID,100,VALID,-0.0169808,VALID,20.3398,VALID,155,VALID,0.117898,
2009-06-13, 03:29:00,VALID,917.22,VALID,0,VALID,100,VALID,-0.0169808,VALID,20.3269,VALID,157,VALID,0.37593,
2009-06-13, 03:30:00,VALID,917.209,VALID,0,VALID,100,VALID,-0.0339617,VALID,20.3134,VALID,151,VALID,0.124645,
2009-06-13, 03:31:00,VALID,917.223,VALID,0,VALID,100,VALID,-0.0169808,VALID,20.3171,VALID,156,VALID,0.356641,
2009-06-13, 03:32:00,VALID,917.227,VALID,0,VALID,100,VALID,-0.0169808,VALID,20.3171,VALID,165,VALID,0.428267,
2009-06-13, 03:33:00,VALID,917.23,VALID,0,VALID,100,VALID,-0.0169808,VALID,20.3169,VALID,154,VALID,1.28391,
2009-06-13, 03:34:00,VALID,917.228,VALID,0,VALID,100,VALID,-0.0509425,VALID,20.3236,VALID,139,VALID,0.868278,
2009-06-13, 03:35:00,VALID,917.217,VALID,0,VALID,100,VALID,-0.0169808,VALID,20.3301,VALID,138,VALID,1.37246,
2009-06-13, 03:36:00,VALID,917.2,VALID,0,VALID,100,VALID,-0.0339617,VALID,20.3233,VALID,136,VALID,1.31337,
2009-06-13, 03:37:00,VALID,917.196,VALID,0,VALID,100,VALID,-0.0679233,VALID,20.3331,VALID,144,VALID,1.46475,
2009-06-13, 03:38:00,VALID,917.202,VALID,0,VALID,100,VALID,0,VALID,20.3326,VALID,134,VALID,1.41959,
2009-06-13, 03:39:00,VALID,917.202,VALID,0,VALID,100,VALID,-0.0169808,VALID,20.3328,VALID,149,VALID,0.893643,
2009-06-13, 03:40:00,VALID,917.21,VALID,0,VALID,100,VALID,-0.0509425,VALID,20.3206,VALID,131,VALID,1.37536,
2009-06-13, 03:41:00,VALID,917.224,VALID,0,VALID,100,VALID,-0.0169808,VALID,20.3204,VALID,139,VALID,1.42028,
2009-06-13, 03:42:00,VALID,917.206,VALID,0,VALID,100,VALID,-0.0169808,VALID,20.3236,VALID,131,VALID,1.5484,
2009-06-13, 03:43:00,VALID,917.204,VALID,0,VALID,100,VALID,-0.0509425,VALID,20.3266,VALID,128,VALID,1.4549,
2009-06-13, 03:44:00,VALID,917.196,VALID,0,VALID,100,VALID,0,VALID,20.3328,VALID,135,VALID,1.34606,
2009-06-13, 03:45:00,VALID,917.204,VALID,0,VALID,100,VALID,0.0169808,VALID,20.3226,VALID,130,VALID,1.52649,
2009-06-13, 03:46:00,VALID,917.196,VALID,0,VALID,100,VALID,-0.0169808,VALID,20.3296,VALID,138,VALID,1.05654,
2009-06-13, 03:47:00,VALID,917.19,VALID,0,VALID,100,VALID,-0.0509425,VALID,20.3366,VALID,141,VALID,1.0685,
2009-06-13, 03:48:00,VALID,917.206,VALID,0,VALID,100,VALID,-0.0339617,VALID,20.3431,VALID,142,VALID,1.00436,